Perryton, TX

7:53 PM CDT on April 26, 2018 (GMT -0500)
Perryton Ochiltree County

Weather History for KPYX - September, 2012

Change the Weather History Date:

Friday, September 7, 2012

  Actual Average Record
Temperature  
Mean Temperature 74 °F -  
Max Temperature 87 °F 88 °F 100 °F (2015)
Min Temperature 62 °F 60 °F 52 °F (1973)
Cooling Degree Days 10    
Growing Degree Days 24 (Base 50)    
Moisture  
Dew Point 55 °F    
Average Humidity 55    
Maximum Humidity 83    
Minimum Humidity 34    
Precipitation  
Precipitation 0.00 in - - ()
Sea Level Pressure  
Sea Level Pressure 30.02 in    
Wind  
Wind Speed 15 mph (NNE)    
Max Wind Speed 32 mph    
Max Gust Speed 44 mph    
Visibility 10 miles    
Events      
Averages and records for this station are not official NWS values.
T = Trace of Precipitation, MM = Missing Value Source: NWS Daily Summary

Daily Weather History Graph

Daily Weather History Graph

Search for Another Location

Airport or City:

Astronomy

Sep. 07, 2012 Rise Set
Actual Time 7:19 AM CDT 8:01 PM CDT
Civil Twilight 6:53 AM CDT 8:27 PM CDT
Nautical Twilight 6:22 AM CDT 8:58 PM CDT
Astronomical Twilight 5:51 AM CDT 9:29 PM CDT
Moon No Moon Rise 2:00 PM CDT (9/7)
Length of Visible Light 13h 34m
Length of Day
12h 41m
Waning Gibbous, 58% of the Moon is Illuminated
Sep 7
Waning Gibbous
Sep 8
Last Quarter
Sep 15
New
Sep 22
First Quarter
Sep 29
Full

Hourly Weather History & Observations

Time (CDT) Temp. Heat Index Dew Point Humidity Pressure Visibility Wind Dir Wind Speed Gust Speed Precip Events Conditions
12:15 AM 77.0 °F - 64.4 °F 65% 29.92 in 10.0 mi SW 19.6 mph 28.8 mph N/A   Clear
12:35 AM 77.0 °F - 62.6 °F 61% 29.91 in 10.0 mi SW 16.1 mph - N/A   Clear
12:55 AM 75.2 °F - 62.6 °F 65% 29.91 in 10.0 mi SW 15.0 mph - N/A   Clear
1:15 AM 77.0 °F - 60.8 °F 57% 29.91 in 10.0 mi SW 18.4 mph - N/A   Clear
1:35 AM 77.0 °F - 59.0 °F 54% 29.91 in 10.0 mi SW 13.8 mph 19.6 mph N/A   Clear
1:55 AM 75.2 °F - 59.0 °F 57% 29.92 in 10.0 mi SW 12.7 mph - N/A   Clear
2:15 AM 73.4 °F - 59.0 °F 61% 29.92 in 10.0 mi WSW 9.2 mph - N/A   Clear
2:35 AM 73.4 °F - 59.0 °F 61% 29.91 in 10.0 mi WSW 8.1 mph - N/A   Clear
2:55 AM 71.6 °F - 59.0 °F 64% 29.91 in 10.0 mi WSW 6.9 mph - N/A   Clear
3:15 AM 71.6 °F - 59.0 °F 64% 29.91 in 10.0 mi WSW 5.8 mph - N/A   Clear
3:35 AM 69.8 °F - 59.0 °F 68% 29.91 in 10.0 mi SW 6.9 mph - N/A   Clear
3:55 AM 69.8 °F - 59.0 °F 68% 29.91 in 10.0 mi East 6.9 mph - N/A   Clear
4:15 AM 71.6 °F - 59.0 °F 64% 29.93 in 10.0 mi East 8.1 mph - N/A   Clear
4:35 AM 71.6 °F - 59.0 °F 64% 29.93 in 10.0 mi SE 3.5 mph - N/A   Clear
4:55 AM 71.6 °F - 60.8 °F 69% 29.92 in 10.0 mi ESE 6.9 mph - N/A   Clear
5:15 AM 68.0 °F - 60.8 °F 78% 29.92 in 10.0 mi SE 6.9 mph - N/A   Clear
5:35 AM 68.0 °F - 60.8 °F 78% 29.91 in 10.0 mi SE 8.1 mph - N/A   Clear
5:55 AM 69.8 °F - 60.8 °F 73% 29.91 in 10.0 mi SE 6.9 mph - N/A   Clear
6:15 AM 68.0 °F - 60.8 °F 78% 29.91 in 10.0 mi SE 5.8 mph - N/A   Clear
6:35 AM 68.0 °F - 60.8 °F 78% 29.91 in 10.0 mi SE 6.9 mph - N/A   Clear
6:55 AM 68.0 °F - 62.6 °F 83% 29.91 in 10.0 mi SE 6.9 mph - N/A   Clear
7:15 AM 68.0 °F - 62.6 °F 83% 29.91 in 10.0 mi SE 8.1 mph - N/A   Clear
7:35 AM 68.0 °F - 60.8 °F 78% 29.91 in 10.0 mi SSE 5.8 mph - N/A   Clear
7:55 AM 68.0 °F - 60.8 °F 78% 29.91 in 10.0 mi SSE 8.1 mph - N/A   Clear
8:15 AM 69.8 °F - 60.8 °F 73% 29.91 in 10.0 mi SE 8.1 mph - N/A   Clear
8:35 AM 73.4 °F - 62.6 °F 69% 29.91 in 10.0 mi SSE 9.2 mph - N/A   Clear
8:55 AM 77.0 °F - 62.6 °F 61% 29.92 in 10.0 mi South 8.1 mph - N/A   Clear
9:15 AM 78.8 °F - 62.6 °F 57% 29.93 in 10.0 mi SW 10.4 mph - N/A   Clear
9:35 AM 80.6 °F 81.5 °F 60.8 °F 51% 29.92 in 10.0 mi SW 11.5 mph - N/A   Clear
9:55 AM 84.2 °F 83.8 °F 59.0 °F 42% 29.92 in 10.0 mi SW 17.3 mph 21.9 mph N/A   Clear
10:15 AM 86.0 °F 85.4 °F 59.0 °F 40% 29.93 in 10.0 mi WSW 18.4 mph 25.3 mph N/A   Clear
10:35 AM 86.0 °F 85.4 °F 59.0 °F 40% 29.94 in 10.0 mi West 19.6 mph 24.2 mph N/A   Clear
10:55 AM 86.0 °F 85.4 °F 59.0 °F 40% 29.96 in 10.0 mi WNW 20.7 mph - N/A   Clear
11:15 AM 86.0 °F 85.4 °F 59.0 °F 40% 29.96 in 10.0 mi NW 17.3 mph 23.0 mph N/A   Clear
11:35 AM 86.0 °F 85.4 °F 59.0 °F 40% 29.96 in 10.0 mi NNW 17.3 mph 24.2 mph N/A   Clear
11:55 AM 87.8 °F 87.6 °F 60.8 °F 40% 29.96 in 10.0 mi North 26.5 mph 34.5 mph N/A   Clear
12:15 PM 84.2 °F 84.4 °F 60.8 °F 45% 29.98 in 10.0 mi NNE 25.3 mph 35.7 mph N/A   Clear
12:35 PM 80.6 °F 80.5 °F 55.4 °F 42% 30.00 in 10.0 mi North 25.3 mph 41.4 mph N/A   Clear
12:55 PM 78.8 °F - 51.8 °F 39% 30.02 in 10.0 mi North 32.2 mph 43.7 mph N/A   Scattered Clouds
1:15 PM 77.0 °F - 50.0 °F 39% 30.04 in 10.0 mi North 31.1 mph 42.6 mph N/A   Mostly Cloudy
1:35 PM 75.2 °F - 46.4 °F 36% 30.05 in 10.0 mi North 28.8 mph 39.1 mph N/A   Mostly Cloudy
1:55 PM 77.0 °F - 46.4 °F 34% 30.06 in 7.0 mi North 32.2 mph 43.7 mph N/A   Scattered Clouds
2:15 PM 73.4 °F - 44.6 °F 36% 30.07 in 10.0 mi NNE 27.6 mph 38.0 mph N/A   Scattered Clouds
2:35 PM 73.4 °F - 44.6 °F 36% 30.09 in 10.0 mi NNE 26.5 mph 35.7 mph N/A   Scattered Clouds
2:55 PM 71.6 °F - 46.4 °F 41% 30.10 in 7.0 mi NNE 29.9 mph 36.8 mph N/A   Clear
3:15 PM 71.6 °F - 46.4 °F 41% 30.10 in 10.0 mi NE 32.2 mph 38.0 mph N/A   Clear
3:35 PM 71.6 °F - 46.4 °F 41% 30.10 in 10.0 mi NE 29.9 mph 40.3 mph N/A   Clear
3:55 PM 73.4 °F - 46.4 °F 38% 30.11 in 10.0 mi NE 27.6 mph 35.7 mph N/A   Clear
4:15 PM 69.8 °F - 46.4 °F 43% 30.12 in 10.0 mi NNE 23.0 mph 36.8 mph N/A   Clear
4:35 PM 69.8 °F - 50.0 °F 49% 30.12 in 10.0 mi NNE 21.9 mph 28.8 mph N/A   Scattered Clouds
4:55 PM 68.0 °F - 50.0 °F 52% 30.15 in 10.0 mi NNE 23.0 mph 27.6 mph N/A   Mostly Cloudy
5:15 PM 69.8 °F - 50.0 °F 49% 30.10 in 10.0 mi NNE 23.0 mph - N/A   Scattered Clouds
5:35 PM 69.8 °F - 50.0 °F 49% 30.10 in 10.0 mi NNE 20.7 mph 27.6 mph N/A   Clear
5:55 PM 71.6 °F - 48.2 °F 43% 30.12 in 10.0 mi NNE 21.9 mph 29.9 mph N/A   Clear
6:15 PM 71.6 °F - 48.2 °F 43% 30.13 in 10.0 mi NNE 20.7 mph 33.4 mph N/A   Clear
6:35 PM 69.8 °F - 48.2 °F 46% 30.15 in 10.0 mi North 20.7 mph 24.2 mph N/A   Clear
6:55 PM 68.0 °F - 48.2 °F 49% 30.16 in 10.0 mi NNE 16.1 mph 23.0 mph N/A   Clear
7:15 PM 68.0 °F - 48.2 °F 49% 30.17 in 10.0 mi NNE 18.4 mph 25.3 mph N/A   Clear
7:35 PM 66.2 °F - 48.2 °F 52% 30.17 in 10.0 mi NNE 17.3 mph 24.2 mph N/A   Clear
7:55 PM 68.0 °F - 46.4 °F 46% 30.17 in 10.0 mi NNE 19.6 mph 28.8 mph N/A   Clear
8:15 PM 66.2 °F - 46.4 °F 49% 30.17 in 10.0 mi NNE 17.3 mph - N/A   Clear
8:35 PM 66.2 °F - 46.4 °F 49% 30.19 in 10.0 mi NNE 15.0 mph - N/A   Clear
8:55 PM 64.4 °F - 46.4 °F 52% 30.20 in 10.0 mi NNE 15.0 mph - N/A   Clear
9:15 PM 64.4 °F - 46.4 °F 52% 30.22 in 10.0 mi North 13.8 mph 21.9 mph N/A   Clear
9:35 PM 64.4 °F - 46.4 °F 52% 30.23 in 10.0 mi North 12.7 mph - N/A   Clear
9:55 PM 64.4 °F - 46.4 °F 52% 30.24 in 10.0 mi North 12.7 mph - N/A   Clear
10:55 PM 62.6 °F - 48.2 °F 59% 30.25 in 10.0 mi North 11.5 mph - N/A   Clear
11:55 PM 62.6 °F - 50.0 °F 63% 30.25 in 10.0 mi North 9.2 mph - N/A   Clear